Buffalo, MN

4:24 PM CDT on July 22, 2017 (GMT -0500)
Buffalo

Weather History for KCFE - April, 2013

Change the Weather History Date:

Friday, April 5, 2013

  Actual Average (KMIC) Record (KMIC)
Temperature  
Mean Temperature 32 °F -  
Max Temperature 40 °F 48 °F 73 °F (2005)
Min Temperature 24 °F 31 °F 14 °F (2002)
Degree Days  
Heating Degree Days 33    
Moisture  
Dew Point 24 °F    
Average Humidity 72    
Maximum Humidity 92    
Minimum Humidity 38    
Precipitation  
Precipitation 0.00 in - - ()
Sea Level Pressure  
Sea Level Pressure 30.13 in    
Wind  
Wind Speed 7 mph (ENE)    
Max Wind Speed 15 mph    
Max Gust Speed 24 mph    
Visibility 9 miles    
Events Rain , Snow    
Averages and records for this station are not official NWS values.
T = Trace of Precipitation, MM = Missing Value Source: NWS Daily Summary

Daily Weather History Graph

Daily Weather History Graph

Search for Another Location

Airport or City:

Trip Planner

Search our weather history database for the weather conditions in past years. The results will help you decide how hot, cold, wet, or windy it might be!

Date:

Astronomy

Apr. 05, 2013 Rise Set
Actual Time 6:47 AM CDT 7:48 PM CDT
Civil Twilight 6:17 AM CDT 8:18 PM CDT
Nautical Twilight 5:42 AM CDT 8:54 PM CDT
Astronomical Twilight 5:04 AM CDT 9:32 PM CDT
Moon 4:08 AM CDT (4/5) 3:01 PM CDT (4/5)
Length of Visible Light 14h 00m
Length of Day
13h 00m
Waning Crescent, 23% of the Moon is Illuminated
Apr 5
Waning Crescent
Apr 10
New
Apr 18
First Quarter
Apr 25
Full
May 2
Last Quarter

Hourly Weather History & Observations

Time (CDT) Temp. Windchill Dew Point Humidity Pressure Visibility Wind Dir Wind Speed Gust Speed Precip Events Conditions
12:15 AM 30.4 °F 25.6 °F 22.5 °F 72% 30.20 in 10.0 mi WNW 4.6 mph - N/A   Clear
12:34 AM 29.8 °F 24.9 °F 22.1 °F 73% 30.20 in 10.0 mi NW 4.6 mph - N/A   Clear
12:54 AM 29.3 °F 24.3 °F 22.3 °F 75% 30.20 in 10.0 mi NW 4.6 mph - N/A   Clear
1:15 AM 29.8 °F 23.9 °F 21.9 °F 72% 30.21 in 10.0 mi NW 5.8 mph - N/A   Clear
1:34 AM 29.3 °F 23.2 °F 21.9 °F 74% 30.21 in 10.0 mi NNW 5.8 mph - N/A   Clear
1:54 AM 29.3 °F 23.2 °F 21.4 °F 72% 30.21 in 10.0 mi NNW 5.8 mph - N/A   Clear
2:15 AM 29.1 °F 24.1 °F 21.2 °F 72% 30.21 in 10.0 mi NNW 4.6 mph - N/A   Clear
2:34 AM 29.1 °F 24.1 °F 21.0 °F 72% 30.21 in 10.0 mi NNW 4.6 mph - N/A   Clear
2:54 AM 28.4 °F 24.6 °F 21.2 °F 74% 30.21 in 10.0 mi NNW 3.5 mph - N/A   Clear
3:15 AM 28.4 °F 21.2 °F 20.8 °F 73% 30.21 in 10.0 mi NNW 6.9 mph - N/A   Clear
3:34 AM 28.4 °F 23.3 °F 20.7 °F 73% 30.22 in 10.0 mi NNW 4.6 mph - N/A   Clear
3:54 AM 28.2 °F 21.0 °F 20.3 °F 72% 30.22 in 10.0 mi NNW 6.9 mph - N/A   Clear
4:15 AM 27.9 °F 22.6 °F 20.3 °F 73% 30.23 in 10.0 mi NNW 4.6 mph - N/A   Clear
4:34 AM 27.5 °F 21.1 °F 20.1 °F 74% 30.23 in 10.0 mi NNW 5.8 mph - N/A   Clear
4:54 AM 27.3 °F 22.0 °F 19.4 °F 72% 30.23 in 10.0 mi North 4.6 mph - N/A   Clear
5:15 AM 27.0 °F 23.0 °F 19.4 °F 73% 30.24 in 10.0 mi North 3.5 mph - N/A   Clear
5:34 AM 26.6 °F 22.6 °F 18.9 °F 73% 30.24 in 10.0 mi North 3.5 mph - N/A   Clear
5:54 AM 25.7 °F 21.5 °F 18.9 °F 75% 30.24 in 10.0 mi North 3.5 mph - N/A   Clear
6:15 AM 25.3 °F - 18.5 °F 75% 30.24 in 10.0 mi Calm Calm - N/A   Clear
6:34 AM 24.8 °F 20.5 °F 18.9 °F 78% 30.23 in 10.0 mi North 3.5 mph - N/A   Clear
6:54 AM 24.6 °F 20.3 °F 18.7 °F 78% 30.24 in 10.0 mi North 3.5 mph - N/A   Clear
7:15 AM 25.0 °F 20.7 °F 18.9 °F 78% 30.24 in 10.0 mi NNE 3.5 mph - N/A   Clear
7:34 AM 26.2 °F 20.7 °F 19.2 °F 75% 30.24 in 10.0 mi NNE 4.6 mph - N/A   Clear
7:54 AM 27.5 °F 20.2 °F 19.0 °F 71% 30.24 in 10.0 mi NE 6.9 mph - N/A   Clear
8:15 AM 28.6 °F 19.9 °F 18.3 °F 65% 30.24 in 10.0 mi NE 9.2 mph - N/A   Clear
8:34 AM 29.8 °F 21.5 °F 18.0 °F 61% 30.23 in 10.0 mi ENE 9.2 mph - N/A   Clear
8:54 AM 30.2 °F 21.3 °F 17.6 °F 60% 30.22 in 10.0 mi ENE 10.4 mph - N/A   Clear
9:15 AM 31.8 °F 23.9 °F 18.1 °F 57% 30.23 in 10.0 mi ENE 9.2 mph - N/A   Clear
9:34 AM 32.2 °F 24.4 °F 17.6 °F 55% 30.22 in 10.0 mi East 9.2 mph - N/A   Clear
9:54 AM 33.3 °F 25.7 °F 18.3 °F 54% 30.22 in 10.0 mi East 9.2 mph - N/A   Clear
10:15 AM 34.7 °F 28.8 °F 18.1 °F 51% 30.21 in 10.0 mi East 6.9 mph - N/A   Clear
10:34 AM 34.7 °F 29.6 °F 18.3 °F 51% 30.22 in 10.0 mi East 5.8 mph - N/A   Clear
10:54 AM 35.6 °F 29.9 °F 18.5 °F 50% 30.22 in 10.0 mi East 6.9 mph - N/A   Clear
11:15 AM 37.4 °F 32.8 °F 18.3 °F 46% 30.21 in 10.0 mi ESE 5.8 mph - N/A   Clear
11:34 AM 37.4 °F 31.4 °F 17.6 °F 45% 30.21 in 10.0 mi ESE 8.1 mph - N/A   Scattered Clouds
11:54 AM 38.1 °F 32.3 °F 17.4 °F 43% 30.19 in 10.0 mi SE 8.1 mph - N/A   Mostly Cloudy
12:15 PM 39.4 °F 33.2 °F 16.9 °F 40% 30.18 in 10.0 mi East 9.2 mph - N/A   Overcast
12:34 PM 39.7 °F 33.2 °F 16.7 °F 39% 30.16 in 10.0 mi ESE 10.4 mph - N/A   Overcast
12:54 PM 39.9 °F 34.5 °F 16.3 °F 38% 30.16 in 10.0 mi ESE 8.1 mph - N/A   Overcast
1:15 PM 40.1 °F 36.1 °F 16.7 °F 39% 30.17 in 10.0 mi SE 5.8 mph - N/A   Overcast
1:34 PM 39.7 °F 35.6 °F 17.4 °F 41% 30.17 in 10.0 mi SE 5.8 mph - N/A   Overcast
1:54 PM 39.4 °F 34.5 °F 17.1 °F 41% 30.16 in 10.0 mi SE 6.9 mph - N/A   Overcast
2:15 PM 39.2 °F 35.0 °F 18.1 °F 43% 30.16 in 10.0 mi SE 5.8 mph - N/A   Overcast
2:34 PM 37.8 °F 31.8 °F 22.1 °F 53% 30.15 in 4.0 mi SSE 8.1 mph - N/A Snow Light Snow
2:54 PM 35.6 °F - 26.6 °F 70% 30.14 in 3.0 mi Calm Calm - N/A Snow Light Snow
3:15 PM 34.9 °F 29.0 °F 28.2 °F 77% 30.13 in 3.0 mi SSE 6.9 mph - N/A Snow Light Snow
3:34 PM 33.3 °F 27.1 °F 29.8 °F 87% 30.12 in 2.0 mi SE 6.9 mph - N/A Rain Light Rain
3:54 PM 33.8 °F 26.4 °F 31.1 °F 90% 30.09 in 5.0 mi ESE 9.2 mph - N/A Rain Light Rain
4:15 PM 33.8 °F 27.0 °F 31.1 °F 90% 30.09 in 2.5 mi SE 8.1 mph - N/A Rain Light Rain
4:34 PM 33.8 °F 27.0 °F 31.1 °F 90% 30.09 in 3.0 mi SE 8.1 mph - N/A Rain Light Rain
4:54 PM 33.8 °F 26.4 °F 31.5 °F 91% 30.07 in 2.5 mi ESE 9.2 mph - N/A Snow Light Snow
5:15 PM 33.8 °F 26.4 °F 31.6 °F 92% 30.06 in 5.0 mi ESE 9.2 mph 17.3 mph N/A Rain Light Rain
5:34 PM 33.8 °F 24.8 °F 31.6 °F 92% 30.03 in 10.0 mi East 12.7 mph 20.7 mph N/A   Overcast
5:54 PM 34.2 °F 25.2 °F 31.6 °F 90% 30.03 in 10.0 mi East 12.7 mph 17.3 mph N/A Rain Light Rain
6:15 PM 34.0 °F 26.0 °F 31.6 °F 91% 30.03 in 10.0 mi East 10.4 mph - N/A Rain Light Rain
6:34 PM 34.2 °F 25.7 °F 31.6 °F 90% 30.02 in 10.0 mi East 11.5 mph - N/A   Overcast
6:54 PM 34.3 °F 25.9 °F 31.5 °F 89% 30.01 in 10.0 mi East 11.5 mph 19.6 mph N/A   Overcast
7:15 PM 34.2 °F 25.2 °F 31.1 °F 89% 30.01 in 10.0 mi East 12.7 mph - N/A   Overcast
7:34 PM 34.2 °F 25.7 °F 31.1 °F 89% 30.01 in 10.0 mi East 11.5 mph - N/A   Overcast
7:54 PM 33.8 °F 23.9 °F 30.9 °F 89% 30.00 in 10.0 mi East 15.0 mph 19.6 mph N/A   Mostly Cloudy
8:14 PM 34.0 °F 25.0 °F 30.9 °F 89% 30.00 in 10.0 mi East 12.7 mph 19.6 mph N/A   Scattered Clouds
8:34 PM 34.0 °F 24.6 °F 30.9 °F 89% 29.99 in 10.0 mi East 13.8 mph 18.4 mph N/A   Scattered Clouds
8:54 PM 34.0 °F 24.6 °F 30.9 °F 89% 29.99 in 10.0 mi East 13.8 mph 20.7 mph N/A   Mostly Cloudy
9:14 PM 34.2 °F 25.2 °F 31.1 °F 89% 29.98 in 10.0 mi East 12.7 mph - N/A   Mostly Cloudy
9:34 PM 34.2 °F 24.4 °F 31.1 °F 89% 29.96 in 10.0 mi East 15.0 mph 21.9 mph N/A   Mostly Cloudy
9:54 PM 34.3 °F 25.0 °F 31.1 °F 88% 29.95 in 10.0 mi East 13.8 mph 21.9 mph N/A   Overcast
10:14 PM 34.3 °F 25.5 °F 31.1 °F 88% 29.94 in 10.0 mi East 12.7 mph 19.6 mph N/A   Overcast
10:34 PM 34.7 °F 25.5 °F 31.1 °F 87% 29.93 in 10.0 mi East 13.8 mph 19.6 mph N/A   Overcast
10:55 PM 34.7 °F 25.1 °F 30.9 °F 86% 29.91 in 10.0 mi East 15.0 mph 19.6 mph N/A   Overcast
11:14 PM 34.9 °F 26.6 °F 30.9 °F 85% 29.90 in 10.0 mi East 11.5 mph 19.6 mph N/A   Overcast
11:34 PM 35.1 °F 26.4 °F 30.9 °F 85% 29.89 in 10.0 mi East 12.7 mph 24.2 mph N/A   Overcast
11:55 PM 35.6 °F 27.1 °F 30.9 °F 83% 29.88 in 10.0 mi East 12.7 mph 19.6 mph N/A   Overcast